User: anonymous
Location: Bethera
(33.2010°N, 79.7880°W)
Time: 08:00:57
(UTC-04:00)
Language:

Cosmos 1833 Rocket - Orbit

View from above orbital plane
View from above orbital plane
View from above satellite
View from above satellite

Ground track
Ground track

The orbit data is extracted from the following two-line orbital elements,

1 17590U 87027B   14109.20269411  .00000363  00000-0  20554-3 0  6590
2 17590 071.0046 061.9069 0007272 268.1504 091.8787 14.16629793400548
Epoch (UTC): 19 April 2014 04:51:52
Eccentricity: 0.0007272
inclination: 71.0046°
perigee height: 831 km
apogee height: 842 km
right ascension of ascending node: 61.9069°
argument of perigee: 268.1504°
revolutions per day: 14.16629793
mean anomaly at epoch: 91.8787°
orbit number at epoch: 40054

The dashed part of the orbit path shows where the satellite is in the earth's shadow,  

DLR